TimeEST,TemperatureF,Dew PointF,Humidity,Sea Level PressureIn,VisibilityMPH,Wind Direction,Wind SpeedMPH,Gust SpeedMPH,PrecipitationIn,Events,Conditions,WindDirDegrees,DateUTC
12:53 AM,55.9,51.1,84,30.25,10.0,Calm,Calm,-,N/A,,Clear,0,2012-12-05 05:53:00
1:53 AM,54.0,48.9,83,30.25,8.0,Calm,Calm,-,N/A,,Clear,0,2012-12-05 06:53:00
2:53 AM,52.0,48.0,86,30.24,8.0,Calm,Calm,-,N/A,,Clear,0,2012-12-05 07:53:00
3:53 AM,51.1,46.9,86,30.22,6.0,Calm,Calm,-,N/A,,Clear,0,2012-12-05 08:53:00
4:53 AM,51.1,46.0,83,30.21,8.0,Calm,Calm,-,N/A,,Clear,0,2012-12-05 09:53:00
5:53 AM,50.0,45.0,83,30.22,8.0,Calm,Calm,-,N/A,,Clear,0,2012-12-05 10:53:00
6:53 AM,48.9,44.1,83,30.23,6.0,Calm,Calm,-,N/A,,Haze,0,2012-12-05 11:53:00
7:12 AM,48.2,44.6,87,30.21,4.0,Calm,Calm,-,N/A,,Partly Cloudy,0,2012-12-05 12:12:00
7:53 AM,50.0,45.0,83,30.25,10.0,Calm,Calm,-,N/A,,Partly Cloudy,0,2012-12-05 12:53:00
9:53 AM,66.9,55.0,66,30.26,10.0,Calm,Calm,-,N/A,,Clear,0,2012-12-05 14:53:00
10:53 AM,73.0,54.0,51,30.25,10.0,Calm,Calm,-,N/A,,Clear,0,2012-12-05 15:53:00
11:53 AM,75.9,53.1,45,30.22,10.0,Calm,Calm,-,N/A,,Clear,0,2012-12-05 16:53:00
12:53 PM,78.1,50.0,37,30.18,10.0,NNE,5.8,-,N/A,,Scattered Clouds,20,2012-12-05 17:53:00
1:53 PM,80.1,46.9,31,30.14,10.0,Variable,4.6,-,N/A,,Scattered Clouds,0,2012-12-05 18:53:00
2:53 PM,80.1,46.9,31,30.11,10.0,NNE,5.8,-,N/A,,Scattered Clouds,20,2012-12-05 19:53:00
3:53 PM,78.1,48.0,35,30.10,10.0,ENE,4.6,-,N/A,,Scattered Clouds,70,2012-12-05 20:53:00
4:53 PM,75.0,50.0,41,30.11,10.0,East,3.5,-,N/A,,Scattered Clouds,100,2012-12-05 21:53:00
5:53 PM,70.0,51.1,51,30.12,10.0,Calm,Calm,-,N/A,,Scattered Clouds,0,2012-12-05 22:53:00
6:53 PM,64.9,52.0,63,30.13,10.0,Calm,Calm,-,N/A,,Mostly Cloudy,0,2012-12-05 23:53:00
7:53 PM,61.0,51.1,70,30.14,10.0,Calm,Calm,-,N/A,,Clear,0,2012-12-06 00:53:00
8:53 PM,60.1,51.1,72,30.14,10.0,Calm,Calm,-,N/A,,Mostly Cloudy,0,2012-12-06 01:53:00
9:53 PM,64.0,52.0,65,30.13,10.0,ESE,3.5,-,N/A,,Partly Cloudy,120,2012-12-06 02:53:00
10:53 PM,63.0,53.1,70,30.13,10.0,East,3.5,-,N/A,,Partly Cloudy,100,2012-12-06 03:53:00
11:53 PM,59.0,51.1,75,30.12,10.0,Calm,Calm,-,N/A,,Clear,0,2012-12-06 04:53:00